Weather History for KCLI - January, 2014

Change the Weather History Date:

Thursday, January 23, 2014

  Actual Average Record
Temperature  
Mean Temperature 0 °F -  
Max Temperature 10 °F 29 °F 43 °F (1967)
Min Temperature -9 °F 10 °F -32 °F (1963)
Degree Days  
Heating Degree Days 64    
Moisture  
Dew Point -8 °F    
Average Humidity 62    
Maximum Humidity 78    
Minimum Humidity 48    
Precipitation  
Precipitation 0.00 in - - ()
Sea Level Pressure  
Sea Level Pressure 30.38 in    
Wind  
Wind Speed 10 mph (WNW)    
Max Wind Speed 14 mph    
Max Gust Speed 20 mph    
Visibility 10 miles    
Events Snow    
Averages and records for this station are not official NWS values.
T = Trace of Precipitation, MM = Missing Value Source: NWS Daily Summary

Daily Weather History Graph

Daily Weather History Graph

Search for Another Location

Airport or City:

Trip Planner

Search our weather history database for the weather conditions in past years. The results will help you decide how hot, cold, wet, or windy it might be!

Date:

Astronomy

Jan. 23, 2014 Rise Set
Actual Time 7:22 AM CST 4:51 PM CST
Civil Twilight 6:50 AM CST 5:23 PM CST
Nautical Twilight 6:15 AM CST 5:58 PM CST
Astronomical Twilight 5:40 AM CST 6:33 PM CST
Moon No Moon Rise 10:38 AM CST (1/23)
Length of Visible Light 10h 32m
Length of Day
9h 28m
Waning Gibbous, 55% of the Moon is Illuminated
Jan 23
Waning Gibbous
Jan 23
Last Quarter
Jan 30
New
Feb 6
First Quarter
Feb 14
Full

Hourly Weather History & Observations

Time (CST) Temp. Windchill Dew Point Humidity Pressure Visibility Wind Dir Wind Speed Gust Speed Precip Events Conditions
12:15 AM 1.4 °F -16.9 °F -4.0 °F 78% 30.11 in 5.0 mi NW 13.8 mph - N/A Snow Light Snow
12:35 AM 1.4 °F -15.3 °F -4.0 °F 78% 30.13 in 4.0 mi WNW 11.5 mph - N/A Snow Light Snow
12:55 AM 1.4 °F -16.9 °F -4.0 °F 78% 30.13 in 7.0 mi NW 13.8 mph 17.3 mph N/A   Overcast
1:15 AM 1.4 °F -13.5 °F -4.0 °F 78% 30.14 in 7.0 mi NW 9.2 mph 17.3 mph N/A   Overcast
1:35 AM 1.4 °F -16.1 °F -4.0 °F 78% 30.14 in 7.0 mi NW 12.7 mph 16.1 mph N/A   Overcast
1:55 AM 1.4 °F -15.3 °F -5.8 °F 72% 30.15 in 10.0 mi NNW 11.5 mph 18.4 mph N/A   Mostly Cloudy
2:15 AM 3.2 °F -13.9 °F -5.8 °F 66% 30.17 in 10.0 mi NNW 12.7 mph 19.6 mph N/A   Mostly Cloudy
2:35 AM 3.2 °F -12.2 °F -5.8 °F 66% 30.18 in 10.0 mi NNW 10.4 mph - N/A   Scattered Clouds
2:55 AM 3.2 °F -12.2 °F -5.8 °F 66% 30.20 in 10.0 mi NW 10.4 mph - N/A   Clear
3:15 AM 3.2 °F -13.1 °F -5.8 °F 66% 30.21 in 10.0 mi NNW 11.5 mph - N/A   Clear
3:35 AM 3.2 °F -11.3 °F -5.8 °F 66% 30.22 in 10.0 mi NNW 9.2 mph - N/A   Clear
3:55 AM 3.2 °F -13.1 °F -5.8 °F 66% 30.23 in 10.0 mi NW 11.5 mph - N/A   Clear
4:15 AM 3.2 °F -12.2 °F -5.8 °F 66% 30.25 in 10.0 mi NNW 10.4 mph 17.3 mph N/A   Clear
4:35 AM 3.2 °F -13.1 °F -5.8 °F 66% 30.27 in 10.0 mi NNW 11.5 mph 17.3 mph N/A   Clear
4:55 AM 3.2 °F -10.3 °F -5.8 °F 66% 30.29 in 10.0 mi NNW 8.1 mph - N/A   Clear
5:15 AM 3.2 °F -7.8 °F -5.8 °F 66% 30.30 in 10.0 mi NNW 5.8 mph - N/A   Clear
5:35 AM 3.2 °F -9.1 °F -5.8 °F 66% 30.32 in 10.0 mi NNW 6.9 mph - N/A   Clear
5:55 AM 3.2 °F -10.3 °F -5.8 °F 66% 30.33 in 10.0 mi NNW 8.1 mph - N/A   Clear
6:15 AM 3.2 °F -7.8 °F -5.8 °F 66% 30.35 in 10.0 mi NNW 5.8 mph - N/A   Clear
6:35 AM 1.4 °F -9.9 °F -5.8 °F 72% 30.36 in 10.0 mi NW 5.8 mph - N/A   Clear
6:55 AM 1.4 °F -9.9 °F -5.8 °F 72% 30.38 in 10.0 mi NW 5.8 mph - N/A   Clear
7:15 AM 1.4 °F -9.9 °F -5.8 °F 72% 30.38 in 10.0 mi NW 5.8 mph - N/A   Clear
7:35 AM -0.4 °F -13.4 °F -5.8 °F 78% 30.39 in 10.0 mi NW 6.9 mph - N/A   Clear
7:55 AM -0.4 °F -14.7 °F -7.6 °F 72% 30.41 in 10.0 mi NW 8.1 mph - N/A   Clear
8:15 AM 1.4 °F -11.3 °F -5.8 °F 72% 30.42 in 10.0 mi NW 6.9 mph - N/A   Clear
8:35 AM 3.2 °F -12.2 °F -5.8 °F 66% 30.43 in 10.0 mi NNW 10.4 mph - N/A   Clear
8:55 AM 3.2 °F -10.3 °F -5.8 °F 66% 30.44 in 10.0 mi NNW 8.1 mph - N/A   Clear
9:15 AM 3.2 °F -12.2 °F -5.8 °F 66% 30.45 in 10.0 mi NNW 10.4 mph - N/A   Clear
9:35 AM 5.0 °F -10.0 °F -5.8 °F 61% 30.46 in 10.0 mi NNW 10.4 mph 16.1 mph N/A   Clear
9:55 AM 5.0 °F -9.1 °F -5.8 °F 61% 30.46 in 10.0 mi North 9.2 mph - N/A   Clear
10:15 AM 6.8 °F -4.8 °F -5.8 °F 56% 30.47 in 10.0 mi NNW 6.9 mph - N/A   Clear
10:35 AM 6.8 °F -6.9 °F -5.8 °F 56% 30.48 in 10.0 mi NNW 9.2 mph - N/A   Clear
10:55 AM 8.6 °F -5.5 °F -4.0 °F 57% 30.48 in 10.0 mi NW 10.4 mph - N/A   Clear
11:15 AM 8.6 °F -3.7 °F -4.0 °F 57% 30.48 in 10.0 mi NW 8.1 mph - N/A   Clear
11:35 AM 8.6 °F -3.7 °F -4.0 °F 57% 30.48 in 10.0 mi NW 8.1 mph - N/A   Clear
11:55 AM 8.6 °F -4.7 °F -4.0 °F 57% 30.48 in 10.0 mi NW 9.2 mph - N/A   Clear
12:15 PM 8.6 °F -6.3 °F -4.0 °F 57% 30.47 in 10.0 mi WNW 11.5 mph - N/A   Clear
12:35 PM 8.6 °F -6.3 °F -4.0 °F 57% 30.47 in 10.0 mi NW 11.5 mph - N/A   Clear
12:55 PM 10.4 °F -0.4 °F -4.0 °F 52% 30.47 in 10.0 mi NW 6.9 mph - N/A   Clear
1:15 PM 10.4 °F -4.1 °F -4.0 °F 52% 30.47 in 10.0 mi WNW 11.5 mph - N/A   Mostly Cloudy
1:35 PM 10.4 °F -1.5 °F -4.0 °F 52% 30.47 in 10.0 mi NW 8.1 mph - N/A   Overcast
1:55 PM 10.4 °F -2.4 °F -5.8 °F 48% 30.46 in 10.0 mi NW 9.2 mph - N/A   Mostly Cloudy
2:15 PM 10.4 °F -1.5 °F -5.8 °F 48% 30.46 in 10.0 mi NW 8.1 mph - N/A   Clear
2:35 PM 10.4 °F -4.8 °F -5.8 °F 48% 30.46 in 10.0 mi West 12.7 mph - N/A   Clear
2:55 PM 10.4 °F -2.4 °F -5.8 °F 48% 30.46 in 10.0 mi WNW 9.2 mph - N/A   Clear
3:15 PM 10.4 °F -4.1 °F -5.8 °F 48% 30.47 in 10.0 mi West 11.5 mph - N/A   Clear
3:35 PM 8.6 °F -5.5 °F -7.6 °F 48% 30.47 in 10.0 mi WNW 10.4 mph - N/A   Clear
3:55 PM 8.6 °F -4.7 °F -7.6 °F 48% 30.47 in 10.0 mi West 9.2 mph - N/A   Clear
4:15 PM 6.8 °F -6.9 °F -7.6 °F 52% 30.47 in 10.0 mi West 9.2 mph - N/A   Clear
4:35 PM 5.0 °F -10.0 °F -7.6 °F 56% 30.48 in 10.0 mi West 10.4 mph - N/A   Clear
4:55 PM 3.2 °F -12.2 °F -7.6 °F 61% 30.48 in 10.0 mi West 10.4 mph - N/A   Clear
5:15 PM 3.2 °F -11.3 °F -9.4 °F 56% 30.48 in 10.0 mi West 9.2 mph - N/A   Clear
5:35 PM 1.4 °F -14.5 °F -9.4 °F 61% 30.48 in 10.0 mi West 10.4 mph - N/A   Clear
5:55 PM 1.4 °F -16.1 °F -11.2 °F 56% 30.48 in 10.0 mi West 12.7 mph - N/A   Clear
6:15 PM -0.4 °F -17.6 °F -11.2 °F 60% 30.47 in 10.0 mi West 11.5 mph - N/A   Clear
6:35 PM -0.4 °F -18.4 °F -13.0 °F 55% 30.47 in 10.0 mi West 12.7 mph - N/A   Clear
6:55 PM -2.2 °F -19.9 °F -13.0 °F 60% 30.47 in 10.0 mi West 11.5 mph - N/A   Clear
7:15 PM -4.0 °F -19.0 °F -13.0 °F 65% 30.46 in 10.0 mi West 8.1 mph - N/A   Clear
7:35 PM -4.0 °F -20.2 °F -13.0 °F 65% 30.46 in - West 9.2 mph - N/A   Clear
7:55 PM -4.0 °F -21.2 °F -13.0 °F 65% 30.46 in - West 10.4 mph - N/A   Clear
8:35 PM -4.0 °F -21.2 °F -14.8 °F 60% 30.43 in - West 10.4 mph - N/A   Clear
8:55 PM -5.8 °F -19.9 °F -14.8 °F 65% 30.43 in - West 6.9 mph - N/A   Clear
9:15 PM -5.8 °F -22.4 °F -16.6 °F 60% 30.41 in - West 9.2 mph - N/A   Clear
9:55 PM -5.8 °F -22.4 °F -16.6 °F 60% 30.40 in - West 9.2 mph - N/A   Clear
9:56 PM -7.6 °F -23.4 °F -18.4 °F 59% 30.40 in - West 8.1 mph - N/A   Clear
10:15 PM -7.6 °F -23.4 °F -16.6 °F 65% 30.39 in - West 8.1 mph - N/A   Clear
10:35 PM -7.6 °F -18.8 °F -16.6 °F 65% 30.38 in - WSW 4.6 mph - N/A   Clear
10:55 PM -7.6 °F -22.1 °F -18.4 °F 59% 30.36 in - WSW 6.9 mph - N/A   Clear
11:15 PM -7.6 °F -23.4 °F -18.4 °F 59% 30.35 in - WSW 8.1 mph - N/A   Clear
11:35 PM -9.4 °F -26.8 °F -18.4 °F 65% 30.34 in - SW 9.2 mph - N/A   Clear
11:55 PM -9.4 °F -25.6 °F -16.6 °F 71% 30.32 in - WSW 8.1 mph - N/A   Clear